Flag for Germany Weather past 2 weeks in Viernheim, Hesse, Germany

Now
52 °F

Light rain. Partly sunny.


Feels Like: 49 °F
Forecast: 46 / 51 °F
Wind: 8 mph from Southwest

Location: Baden Wurttemberg - Neuostheim

Current Time: Mar 29, 2015 at 10:25:33 AM

Latest Report: Mar 29, 2015 at 9:50 AM


Visibility: N/A

Pressure: 29.80 "Hg

Humidity: 88%

Dew point: 48 °F

Location of ViernheimLocation

Historic Weather in Viernheim — Graph

°F

Viernheim temperature yesterday

Maximum temperature yesterday: 57 °F (at 2:50 PM)
Minimum temperature yesterday: 37 °F (at 5:50 AM)
Average temperature yesterday: 50 °F

Past Weeks' High & Low Weather Summary

 TemperatureHumidityPressure
High64 °F (Mar 17, 3:50 PM)100% (Mar 21, 9:20 AM)30.30 "Hg (Mar 21, 9:20 AM)
Low30 °F (Mar 24, 5:20 AM)34% (Mar 20, 3:50 PM)29.59 "Hg (Mar 25, 2:50 PM)
Average49 °F63%30.07 "Hg
* Reported Mar 14 7:20 AM — Mar 29 8:50 AM, Viernheim, Weather by CustomWeather, © 2015

Note: Actual official high and low records may vary slightly from our data, if they occured in-between our weather recording intervals... More about our weather records

Advertising

Viernheim weather history for previous 24 hours

 ConditionsComfort  
Time TempWeatherWind HumidityBarometerVisibility
8:50 AM
Sun, Mar 29
52 °FLight rain. Partly sunny.12 mph88%29.83 "HgN/A
8:20 AM52 °FOvercast.10 mph88%29.83 "HgN/A
7:50 AM52 °FOvercast.10 mph88%29.83 "HgN/A
7:20 AM52 °FPartly cloudy.10 mph88%29.86 "HgN/A
7:50 PM
Sat, Mar 28
52 °FOvercast.7 mph62%30.04 "HgN/A
7:20 PM52 °FOvercast.6 mph67%30.01 "HgN/A
6:50 PM52 °FOvercast.6 mph67%30.01 "HgN/A
6:20 PM52 °FDrizzle. Overcast.6 mph67%30.04 "HgN/A
5:50 PM52 °FDrizzle. Overcast.7 mph67%30.04 "HgN/A
5:20 PM54 °FDrizzle. Partly sunny.7 mph54%30.04 "HgN/A
4:50 PM54 °FDrizzle. Overcast.7 mph54%30.04 "HgN/A
4:20 PM55 °FDrizzle. Partly sunny.10 mph47%30.04 "HgN/A
3:50 PM57 °FPassing clouds.8 mph41%30.04 "HgN/A
3:20 PM57 °FPassing clouds.12 mph39%30.07 "HgN/A
2:50 PM57 °FPassing clouds.9 mph39%30.07 "HgN/A
2:20 PM55 °FPassing clouds.10 mph38%30.07 "HgN/A
1:50 PM55 °FPassing clouds.9 mph38%30.09 "HgN/A
1:20 PM55 °FPassing clouds.10 mph38%30.09 "HgN/A
12:50 PM54 °FPassing clouds.9 mph41%30.12 "HgN/A
12:20 PM54 °FSunny.13 mph41%30.12 "Hg10 mi
11:50 AM54 °FPassing clouds.7 mph41%30.15 "HgN/A
11:20 AM52 °FPassing clouds.9 mph44%30.18 "HgN/A
10:50 AM52 °FPassing clouds.9 mph44%30.18 "HgN/A
10:20 AM50 °FPassing clouds.8 mph50%30.21 "HgN/A
Weather by CustomWeather, © 2015

See weather overviewHow to use our weather pages